Showing default

TEN-KOH, 43677

Orbit data source: Space-Track

TEN-KOH, 43677 is a payload satellite owned by Kyutech (JP) in SSO that was launched on Mon, 29 Oct 2018 UTC via an H-IIA 202 launch vehicle from the Tanegashima Space Center (TNSTA). Payloads include a variety of satellites, spacecraft, and rockets equipped with specific instruments for various scientific and technological missions. These include communications satellites like Starlink; space stations such as the ISS; scientific satellites like the Hubble; Earth observation satellites from companies like Planet Labs, Umbra, and HawkEye 360; GPS; miniature CubeSats for education and research; and military/defense satellites.

Loading next visibility...
TEN-KOH details
Identifier
43677, 2018-084G
Orbit
SSO
Last TLE update14 hours ago
Origin
Flag of JPKyutech (JP / JPN)
ManufacturerKyutech
MissionOperational Amateur Technology
Bus & MotorSHINEN-2, Unknown motor
Mass22.3 kg wet, 22.3 kg dry
Launch date (UTC)
2018-10-29 (6 years ago)
Launch vehicle
H-IIA 202
Launch site
Tanegashima Space Center (TNSTA)
Object type
Payload
Rocket body
Debris
Shape & HBRPolyhedral Cyl, 0.5 m
Radar Cross Section0.295 m², Medium (>0.1 m² and < 1m²)

Expand to show TLE details & history

TLE from 14 hours ago
0 TEN-KOH
1 43677U 18084G   25013.43004080  .00003465  00000-0  29050-3 0  9995
2 43677  98.0817 179.9349 0014252  38.8444 321.3799 14.99023647338181
Epoch: 2025-01-13T10:19Z
Definitive object data (Epoch: 2025-01-13T10:19:15.525Z)
Latitude-0.00003°
Longitude-88.03099°
Altitude565.221 km
Speed7.583 km/s
True Right ascension11h 59m 44s
True Declination0° 00' 00"
Sunlit
Object was in full shadow at TLE epoch
Visualization TLE readout
Latitude-59.69872°
Longitude78.58404°
Altitude602.027 km
Speed7.552 km/s
Apparent Right ascension15h 32m 17s
Apparent Declination-77° 18' 06"
Sunlit
Object is in daylight
Visualization observer readout
Local Sidereal Time00:46:48
Azimuth192.744° SSW
Elevation-48.807°
Doppler factor1
Orbital elements
Apogee altitude576.834 km
Perigee altitude557.037 km
Semi-major axis6,945.072 km
Eccentricity0.0014252
Inclination98.0817°
RAAN179.9349°
Arg. of periapsis38.8444°
True anomaly321.27782°
Mean anomaly321.3799°
Eccentric anomaly321.32888°
Mean motion3.74997 °/min
BSTAR0.0002905
Orbital period96 mins
Loading maneuver chart data...

TEN-KOH Visibility forecast

Observer location: undefined°, undefined

Span
Click to sort rows by Start time (UTC) header in descending order
Start Az.
Max El. time (UTC)
Max El. Az.
Max El.
End time (UTC)
End Az.
6 mins2025-01-14 10:29:23.818Z135.433° SSE2025-01-14 10:32:23.818Z63.869° ENE32.332°2025-01-14 10:35:23.818Z5.791° NNE
6 mins2025-01-14 23:44:23.818Z19.239° NNE2025-01-14 23:47:23.818Z114.246° SE43.589°2025-01-14 23:50:23.818Z185.477° SSW
|